Location: Newport
(44.6370°N, 124.0520°W)
Time: 14:36:32
(UTC-08:00)

N. Korean satellite - Pass Details

Date: 10 October 2017
Orbit: 461 x 513 km, 97.2° (Epoch: 13 December)

Event Time Altitude Azimuth Distance (km) Brightness Sun altitude
Rises 19:34:13 0° 179° (S) 2,562 10.2 -10.5°
Reaches altitude 10° 19:36:20 10° 184° (S) 1,676 9.3 -10.9°
Maximum altitude 19:39:50 49° 260° (W) 634 7.6 -11.5°
Drops below altitude 10° 19:43:19 10° 337° (NNW) 1,661 9.6 -12.1°
Sets 19:45:25 0° 343° (NNW) 2,536 10.5 -12.5°
